Wind_Speed
2 2 2 2 2 2 2 2 2 3 3 4 4 4 4 4 5 4 4 4 4 4 4 5 6 6 6 7 8 8 7 7 8 8 8 8 9 10 11 11 10 11 11
3 3 3 3 3 3 3 4 4 5 5 5 5 5 5 5 6 5 6 6 5 5 5 6 6 6 7 7 8 8 8 7 7 8 8 8 9 9 10 10 11 11 11
4 4 4 4 5 5 5 5 5 5 6 6 6 6 6 6 6 6 7 6 6 6 6 6 6 6 7 7 8 8 8 8 8 8 8 8 9 9 10 11 11 11 11
4 4 5 5 5 5 5 6 6 6 6 6 6 6 6 7 7 6 7 7 7 6 7 6 7 7 8 8 8 9 9 8 8 8 8 8 9 9 10 10 10 11 12
6 5 5 5 5 5 5 6 6 6 6 6 6 6 6 7 7 7 8 8 7 7 7 6 7 7 8 9 9 9 9 9 9 9 10 9 9 9 10 10 10 10 11
6 6 6 6 6 5 6 6 7 6 7 7 6 7 7 8 8 8 8 9 8 7 7 7 7 8 9 9 9 9 9 10 10 10 10 9 9 9 10 10 10 11 10
6 6 7 7 7 6 6 6 6 6 7 7 7 8 8 8 8 8 8 9 8 8 8 8 8 9 9 9 9 9 10 10 10 10 10 10 10 10 10 10 11 11 10
7 7 7 7 7 7 6 6 7 7 7 7 8 9 9 9 9 9 9 9 9 9 9 9 9 9 9 9 9 10 10 10 10 11 11 11 10 10 11 11 11 11 11
7 7 7 7 7 7 7 7 7 7 8 8 9 9 9 9 9 9 9 9 9 9 9 9 9 9 9 10 10 10 10 11 11 11 10 10 9 10 10 11 12 11 11
7 7 7 6 6 7 7 6 7 7 8 9 9 9 9 9 9 8 8 8 8 9 9 9 9 9 10 10 10 10 10 10 10 10 10 10 10 10 11 12 12 12 12
7 7 7 6 7 6 6 6 7 8 8 9 9 9 9 10 10 9 9 9 9 9 8 8 8 9 9 9 9 9 10 10 10 10 9 9 10 10 10 11 11 11 11
7 7 7 7 7 6 6 6 7 8 8 9 9 10 10 9 9 10 10 10 10 10 10 9 9 9 10 10 10 10 10 10 9 9 9 9 10 10 10 9 10 10 11
8 8 8 7 7 7 7 7 8 8 9 9 9 10 10 10 10 10 10 10 10 11 10 10 10 10 10 10 10 10 10 10 10 10 10 10 10 10 9 8 9 10 10
8 8 8 7 8 7 8 8 8 9 9 9 9 10 10 10 10 10 10 10 11 11 11 11 11 10 11 10 10 10 11 10 10 10 10 9 9 10 9 9 9 10 10
8 8 8 8 8 8 8 9 9 9 10 10 10 10 11 11 11 11 11 11 11 11 11 11 11 11 11 10 10 10 10 11 10 10 10 10 10 10 10 9 10 10 10
9 9 10 10 9 9 10 10 10 10 11 11 11 11 11 11 11 11 11 11 11 10 10 11 11 11 11 11 11 11 11 11 10 10 10 11 11 10 10 10 10 10 10
11 11 11 11 11 11 11 11 11 11 11 12 11 11 11 11 11 11 11 11 11 11 10 11 11 11 11 11 11 11 11 11 11 10 10 11 11 10 10 10 10 11 11
12 12 12 12 12 12 12 12 12 12 12 12 12 12 12 11 11 12 11 11 11 11 11 11 12 12 11 11 11 11 12 12 11 11 10 11 11 10 10 10 10 11 11
12 12 12 12 13 13 13 13 13 13 13 13 13 13 13 13 13 12 12 12 12 12 12 12 12 12 12 12 12 12 12 12 12 12 12 11 11 11 11 11 11 11 12
13 13 13 13 13 13 14 14 14 14 14 14 15 14 14 14 14 14 14 13 13 13 13 13 13 13 13 14 13 13 13 13 13 13 13 13 13 12 11 11 11 12 11
14 14 14 14 14 15 15 15 15 15 15 15 15 15 15 15 15 15 14 14 14 14 14 14 14 14 14 14 14 14 14 14 14 14 14 13 13 14 13 12 12 12 12
15 16 16 16 16 16 16 16 16 16 16 16 16 17 16 16 15 15 15 15 15 15 14 15 15 15 15 15 15 14 14 14 14 14 14 14 14 14 14 13 13 12 12
17 17 17 17 17 17 17 18 18 17 17 17 17 18 17 17 16 16 16 16 16 16 15 16 16 16 16 16 16 15 15 14 14 14 15 15 14 14 14 14 14 13 13
18 18 18 18 18 18 19 19 18 18 18 18 17 17 18 18 17 17 17 17 16 17 16 17 17 17 16 17 16 16 16 16 15 15 15 15 15 15 15 15 15 14 14
18 18 18 19 19 20 20 20 20 20 20 19 19 19 19 19 19 19 19 18 18 18 18 18 18 18 18 18 17 18 18 17 17 16 16 16 16 17 17 17 17 16 15
20 20 19 20 20 21 21 21 20 20 21 21 20 20 20 20 20 21 20 20 20 20 20 20 20 19 19 19 19 19 19 19 18 18 18 18 18 19 19 19 18 17 17
Wind_Direction
270 276 279 284 314 315 314 320 331 336 333 338 345 343 339 335 332 332 328 318 307 302 300 300 299 299 297 297 297 301 296 291 284 281 273 270 269 264 262 262 263 263 265
278 279 280 296 307 307 304 303 313 320 320 322 324 325 324 320 320 316 319 319 314 311 310 307 304 302 301 300 298 300 297 293 286 284 278 274 273 270 270 266 266 265 267
280 274 283 295 299 302 300 300 306 311 314 318 318 318 317 316 315 308 308 310 308 308 308 303 300 299 300 300 297 296 295 293 287 283 279 279 276 277 273 268 266 267 265
283 274 283 291 298 300 301 297 302 307 312 316 318 318 317 315 310 305 305 304 301 301 302 296 294 299 300 299 296 295 295 292 285 284 284 283 281 278 275 271 270 270 267
285 283 289 292 296 295 296 298 299 304 310 315 319 322 320 317 312 307 304 305 301 301 301 297 295 296 298 299 297 295 293 292 286 284 281 280 279 278 277 275 273 271 269
283 285 292 293 294 295 298 298 296 296 298 307 313 317 321 319 314 310 307 305 300 301 302 300 300 299 299 297 295 295 294 293 294 291 289 290 288 281 279 276 275 273 269
283 286 289 291 295 296 298 299 296 299 299 301 308 312 317 319 319 314 310 305 301 299 300 300 299 299 300 301 299 298 300 299 297 296 295 295 293 289 285 281 278 274 273
283 285 287 293 295 296 297 298 300 298 301 303 306 310 314 315 317 315 309 305 305 305 302 301 297 300 301 300 300 301 301 298 297 301 299 297 296 292 287 283 282 280 277
284 287 289 292 292 292 295 299 303 304 303 302 305 310 312 312 312 311 306 305 308 308 304 302 300 299 300 299 299 302 303 301 298 297 297 296 296 292 288 284 283 285 283
283 288 294 294 293 292 296 299 304 305 308 309 308 312 313 314 314 315 313 312 311 309 304 303 303 302 302 299 301 303 302 300 299 297 297 298 298 295 290 288 284 283 282
285 287 288 291 298 296 297 297 301 306 310 313 314 315 315 313 311 317 319 319 317 316 308 306 309 309 306 304 304 303 301 301 299 298 295 296 301 302 297 290 285 281 279
282 282 284 292 296 295 293 293 300 306 309 312 315 316 316 315 317 319 318 321 320 318 312 308 311 310 308 305 305 305 302 301 301 300 298 301 305 307 305 298 289 283 281
283 282 280 286 289 290 293 299 300 302 306 311 313 315 316 318 318 317 316 315 316 315 313 310 310 308 303 302 304 305 303 303 302 304 304 306 308 309 307 301 291 287 282
283 284 285 286 288 290 293 297 297 298 304 308 310 312 314 316 315 315 316 314 312 310 309 309 307 306 302 300 302 302 302 300 302 304 302 304 305 305 303 294 291 289 283
279 282 285 285 287 290 291 292 291 295 300 304 306 308 310 311 310 311 313 313 313 311 308 305 306 308 306 303 303 304 304 303 302 302 302 302 302 301 300 299 292 291 288
277 277 280 283 286 289 288 288 288 294 297 302 303 305 308 309 311 311 311 311 310 310 306 304 302 306 306 305 305 305 303 303 301 303 302 300 300 300 298 298 296 293 290
277 278 280 284 287 288 288 289 293 294 295 298 300 302 305 309 309 314 313 311 310 311 308 306 304 306 306 303 305 305 303 302 303 300 302 301 299 298 298 298 297 294 291
278 279 283 286 286 287 288 287 289 293 295 295 298 300 304 306 306 310 310 312 312 310 308 308 308 308 306 303 305 306 304 301 301 299 299 298 297 299 300 299 297 297 293
280 280 283 285 285 285 286 287 287 289 292 293 294 298 301 302 302 305 307 307 307 308 308 305 306 305 305 304 304 305 304 300 300 301 299 298 298 298 298 298 299 297 297
280 280 282 283 284 284 284 285 285 287 289 290 291 294 297 299 300 302 302 303 306 308 306 306 304 303 303 304 303 304 306 303 301 301 301 299 297 295 295 295 296 293 294
281 281 282 283 282 282 284 285 285 286 287 289 290 292 294 296 297 298 299 300 302 305 304 302 302 300 301 301 301 302 303 302 299 298 298 299 300 300 298 298 297 294 292
282 282 283 285 285 284 285 286 285 285 286 287 288 289 291 292 295 296 297 296 298 300 300 299 300 300 299 298 300 300 300 300 298 296 296 297 296 297 297 296 296 295 295
284 284 285 286 287 286 285 286 284 283 284 285 285 286 288 290 292 292 292 293 294 296 295 295 297 298 300 300 300 299 299 299 297 295 295 295 294 294 293 291 290 290 290
285 284 285 285 285 285 285 285 285 285 285 285 285 285 286 288 288 290 290 290 289 290 291 293 294 295 298 299 298 298 298 297 295 293 293 293 293 293 292 291 288 287 285
284 284 284 284 284 283 283 284 285 286 286 287 287 287 286 287 288 287 290 288 288 288 288 290 291 293 294 295 295 295 295 294 293 292 291 292 292 292 292 291 290 287 283
282 282 283 283 283 284 284 283 284 284 285 285 286 286 286 288 289 286 287 287 287 287 287 288 289 290 290 292 293 292 291 291 291 290 289 289 290 291 290 290 290 287 284
Height
5873 5872 5872 5872 5872 5872 5871 5871 5871 5870 5869 5868 5868 5867 5866 5866 5865 5865 5864 5863 5863 5863 5862 5862 5862 5861 5861 5861 5860 5860 5859 5859 5859 5859 5859 5859 5859 5860 5860 5861 5861 5861 5862
5873 5872 5872 5872 5872 5872 5871 5871 5870 5870 5869 5868 5867 5867 5866 5866 5865 5864 5864 5863 5863 5862 5862 5861 5861 5861 5860 5860 5859 5859 5858 5858 5858 5857 5857 5857 5858 5858 5859 5859 5859 5860 5860
5872 5872 5872 5872 5872 5871 5871 5870 5870 5869 5868 5868 5867 5866 5865 5865 5864 5864 5863 5863 5862 5861 5861 5861 5860 5860 5859 5859 5858 5858 5857 5857 5856 5856 5856 5856 5856 5856 5857 5857 5857 5858 5858
5872 5872 5872 5871 5871 5870 5870 5869 5869 5868 5868 5867 5866 5866 5865 5864 5864 5863 5862 5861 5861 5860 5860 5859 5859 5859 5858 5858 5857 5857 5856 5856 5855 5855 5855 5855 5855 5854 5855 5855 5855 5856 5856
5871 5871 5871 5871 5870 5870 5869 5869 5868 5867 5867 5866 5866 5865 5864 5863 5863 5862 5861 5860 5860 5859 5859 5858 5858 5857 5857 5856 5856 5855 5855 5854 5853 5853 5853 5853 5852 5852 5852 5853 5853 5853 5854
5870 5870 5870 5869 5869 5869 5868 5868 5867 5867 5866 5866 5865 5864 5863 5862 5861 5860 5860 5859 5859 5858 5858 5857 5857 5856 5856 5855 5855 5854 5853 5852 5852 5851 5851 5851 5850 5850 5850 5850 5851 5851 5851
5869 5869 5869 5868 5868 5868 5867 5867 5866 5866 5865 5865 5864 5863 5863 5862 5860 5859 5859 5858 5858 5857 5857 5856 5856 5855 5854 5854 5853 5852 5852 5851 5850 5849 5849 5849 5849 5849 5848 5848 5848 5849 5849
5868 5868 5867 5867 5867 5866 5866 5866 5865 5865 5864 5863 5863 5862 5861 5861 5859 5858 5857 5857 5857 5856 5855 5855 5854 5853 5853 5852 5851 5851 5850 5849 5848 5848 5847 5847 5847 5847 5846 5846 5846 5846 5846
5867 5867 5866 5866 5866 5865 5865 5865 5864 5864 5863 5862 5862 5861 5860 5859 5859 5858 5857 5856 5855 5855 5854 5853 5852 5852 5851 5850 5850 5849 5848 5847 5847 5846 5846 5845 5845 5844 5843 5843 5843 5843 5843
5866 5866 5865 5865 5864 5864 5864 5863 5863 5863 5862 5861 5860 5860 5859 5858 5857 5857 5856 5855 5854 5853 5852 5851 5851 5850 5849 5849 5848 5847 5847 5846 5845 5844 5844 5843 5843 5841 5840 5839 5839 5840 5840
5864 5864 5864 5864 5863 5863 5863 5862 5862 5861 5861 5860 5859 5858 5858 5857 5856 5855 5854 5853 5852 5851 5851 5850 5849 5848 5848 5847 5846 5846 5845 5844 5843 5842 5842 5841 5840 5839 5837 5835 5835 5836 5837
5863 5863 5863 5863 5862 5862 5861 5861 5861 5860 5860 5859 5858 5857 5856 5855 5854 5853 5853 5852 5851 5850 5849 5848 5848 5847 5846 5846 5845 5844 5843 5842 5841 5841 5840 5839 5838 5836 5834 5833 5833 5834 5835
5862 5862 5861 5861 5861 5860 5860 5860 5859 5859 5858 5858 5857 5856 5855 5854 5853 5852 5851 5850 5849 5848 5847 5847 5846 5846 5845 5844 5844 5843 5842 5841 5840 5839 5838 5837 5836 5835 5833 5832 5831 5832 5833
5860 5860 5860 5860 5859 5859 5859 5858 5858 5858 5857 5856 5855 5854 5853 5852 5852 5851 5850 5849 5848 5847 5846 5846 5845 5844 5843 5842 5842 5841 5840 5839 5838 5837 5836 5835 5835 5833 5832 5831 5831 5831 5832
5859 5858 5858 5858 5858 5857 5857 5857 5856 5856 5855 5855 5854 5853 5852 5851 5850 5849 5848 5847 5846 5845 5844 5844 5843 5842 5841 5841 5840 5839 5838 5837 5836 5835 5835 5834 5833 5832 5831 5830 5829 5830 5829
5857 5857 5857 5856 5856 5856 5855 5855 5854 5854 5853 5853 5852 5851 5850 5849 5848 5847 5846 5845 5844 5843 5843 5842 5841 5841 5840 5839 5838 5837 5836 5835 5835 5833 5833 5832 5831 5830 5829 5828 5828 5828 5827
5855 5855 5855 5855 5854 5854 5854 5853 5852 5852 5851 5851 5850 5849 5848 5847 5846 5845 5844 5843 5842 5841 5841 5840 5839 5839 5838 5837 5836 5835 5834 5833 5833 5832 5830 5829 5829 5828 5827 5826 5826 5825 5825
5853 5853 5853 5853 5852 5852 5851 5851 5850 5850 5849 5848 5848 5847 5846 5845 5844 5843 5842 5841 5840 5839 5839 5838 5837 5837 5836 5835 5834 5833 5832 5831 5830 5829 5828 5827 5826 5826 5825 5824 5824 5823 5822
5850 5850 5850 5850 5850 5849 5849 5848 5848 5847 5847 5846 5845 5845 5844 5843 5842 5841 5840 5839 5838 5837 5837 5836 5835 5834 5834 5833 5832 5830 5829 5828 5827 5827 5826 5825 5824 5823 5823 5822 5821 5820 5819
5848 5848 5847 5847 5847 5847 5846 5846 5845 5845 5844 5844 5843 5842 5841 5840 5839 5838 5838 5837 5836 5835 5835 5834 5833 5832 5831 5830 5829 5828 5827 5826 5825 5824 5823 5822 5821 5820 5820 5819 5818 5817 5816
5845 5845 5844 5844 5844 5844 5843 5843 5842 5842 5841 5841 5839 5839 5838 5837 5837 5836 5835 5834 5834 5833 5832 5831 5830 5829 5828 5827 5827 5825 5824 5823 5822 5821 5820 5819 5819 5818 5817 5817 5816 5815 5814
5842 5842 5841 5841 5841 5840 5840 5839 5839 5838 5838 5837 5836 5835 5835 5834 5833 5833 5832 5831 5831 5830 5829 5828 5827 5826 5825 5824 5824 5823 5822 5821 5819 5818 5817 5816 5816 5815 5814 5813 5813 5812 5812
5838 5838 5838 5837 5837 5837 5836 5835 5834 5834 5834 5833 5832 5832 5831 5830 5830 5829 5828 5828 5827 5827 5826 5825 5824 5823 5822 5821 5820 5820 5818 5817 5816 5816 5814 5813 5812 5812 5811 5810 5810 5809 5809
5835 5834 5834 5833 5833 5832 5832 5831 5830 5830 5830 5829 5828 5828 5827 5826 5826 5825 5825 5824 5824 5823 5822 5821 5821 5820 5819 5818 5817 5816 5815 5814 5813 5812 5811 5810 5809 5808 5807 5807 5806 5805 5805
5830 5830 5829 5829 5828 5828 5827 5827 5826 5825 5825 5825 5824 5823 5823 5822 5821 5821 5820 5820 5819 5819 5818 5817 5816 5815 5814 5814 5813 5812 5811 5810 5809 5808 5807 5806 5805 5804 5803 5802 5802 5801 5800
5826 5825 5825 5824 5824 5823 5822 5822 5821 5821 5820 5820 5819 5819 5818 5817 5817 5816 5816 5815 5815 5814 5813 5813 5812 5811 5810 5809 5808 5807 5806 5805 5804 5803 5803 5802 5801 5800 5799 5798 5797 5796 5796